When you browse on this site, cookies collect data to enhance your experience and personalize the content and advertising you see.
Visit our Privacy Policy to learn more. By continuing to use the site, you agree to this use of cookies and data.
  • In United Kingdom
  • List of Countries
  • For 7 days
  • Water Temperature
  • Weather Map
  • Weather Widgets
  • user-avatar
    Login

    Hourly Weather Mons

    Today, 20 February, Thursday

    Time Temperature Precipitation Wind Pressure Humidity
    00:00 +5°C° 0 mm 7 mps 762 mmHg 91%
    01:00 +5°C° 0 mm 7 mps 761 mmHg 90%
    02:00 +5°C° 0 mm 6 mps 761 mmHg 89%
    03:00 +7°C° 0 mm 6 mps 760 mmHg 89%
    04:00 +5°C° 0 mm 6 mps 760 mmHg 89%
    05:00 +5°C° 0 mm 6 mps 760 mmHg 89%
    06:00 +4°C° 0 mm 6 mps 760 mmHg 89%
    07:00 +5°C° 0 mm 6 mps 760 mmHg 85%
    08:00 +5°C° 0 mm 7 mps 759 mmHg 81%
    09:00 +6°C° 0 mm 8 mps 759 mmHg 78%
    10:00 +6°C° 0 mm 8 mps 759 mmHg 77%
    11:00 +7°C° 0 mm 8 mps 759 mmHg 76%
    12:00 +7°C° 0 mm 9 mps 758 mmHg 76%
    13:00 +7°C° 0 mm 9 mps 757 mmHg 76%
    14:00 +7°C° 0 mm 9 mps 757 mmHg 77%
    15:00 +7°C° 0 mm 10 mps 756 mmHg 78%
    16:00 +7°C° 0.7 mm 10 mps 756 mmHg 81%
    17:00 +7°C° 0.7 mm 11 mps 756 mmHg 84%
    18:00 +7°C° 0.7 mm 12 mps 756 mmHg 88%
    19:00 +5°C° 0.4 mm 10 mps 758 mmHg 85%
    20:00 +4°C° 0.4 mm 8 mps 760 mmHg 83%
    21:00 +3°C° 0.4 mm 6 mps 761 mmHg 80%
    22:00 +2°C° 0 mm 5 mps 762 mmHg 79%
    23:00 +2°C° 0 mm 5 mps 763 mmHg 78%

    Tomorrow, 21 February, Friday

    Time Temperature Precipitation Wind Pressure Humidity
    00:00 +1°C° 0 mm 5 mps 764 mmHg 77%
    01:00 +1°C° 0 mm 5 mps 765 mmHg 78%
    02:00 +1°C° 0 mm 4 mps 765 mmHg 79%
    03:00 0°C° 0 mm 4 mps 766 mmHg 80%
    04:00 0°C° 0 mm 4 mps 766 mmHg 82%
    05:00 0°C° 0 mm 4 mps 767 mmHg 84%
    06:00 0°C° 0 mm 4 mps 767 mmHg 86%
    13:00 +6°C° 0 mm 7 mps 768 mmHg 71%
    14:00 +6°C° 0 mm 7 mps 767 mmHg 71%
    15:00 +6°C° 0 mm 7 mps 767 mmHg 71%
    16:00 +5°C° 0 mm 6 mps 767 mmHg 75%
    17:00 +4°C° 0 mm 6 mps 767 mmHg 78%
    18:00 +4°C° 0 mm 6 mps 767 mmHg 81%
    19:00 +4°C° 0 mm 6 mps 767 mmHg 82%
    20:00 +4°C° 0 mm 7 mps 766 mmHg 83%
    21:00 +4°C° 0 mm 7 mps 766 mmHg 83%
    22:00 +3°C° 0 mm 7 mps 766 mmHg 85%
    23:00 +3°C° 0 mm 7 mps 766 mmHg 86%

    Day after tomorrow, 22 February, Saturday

    Time Temperature Precipitation Wind Pressure Humidity
    00:00 +2°C° 0 mm 8 mps 766 mmHg 87%
    01:00 +2°C° 0 mm 8 mps 765 mmHg 86%
    02:00 +2°C° 0 mm 8 mps 765 mmHg 85%
    03:00 +2°C° 0 mm 8 mps 764 mmHg 84%
    04:00 +2°C° 0 mm 8 mps 764 mmHg 81%
    05:00 +2°C° 0 mm 8 mps 764 mmHg 79%
    06:00 +2°C° 0 mm 8 mps 764 mmHg 77%
    07:00 +3°C° 0 mm 9 mps 764 mmHg 75%
    08:00 +3°C° 0 mm 10 mps 763 mmHg 73%
    09:00 +5°C° 0 mm 10 mps 763 mmHg 71%
    10:00 +6°C° 0 mm 10 mps 763 mmHg 71%
    11:00 +7°C° 0 mm 10 mps 763 mmHg 71%
    12:00 +8°C° 0 mm 10 mps 763 mmHg 71%
    13:00 +8°C° 0 mm 9 mps 763 mmHg 74%
    14:00 +8°C° 0 mm 9 mps 763 mmHg 78%
    15:00 +9°C° 0 mm 8 mps 763 mmHg 81%
    16:00 +9°C° 0.1 mm 8 mps 763 mmHg 82%
    17:00 +9°C° 0.1 mm 8 mps 763 mmHg 82%
    18:00 +10°C° 0.1 mm 7 mps 764 mmHg 83%
    19:00 +9°C° 0 mm 7 mps 764 mmHg 82%
    20:00 +8°C° 0 mm 7 mps 765 mmHg 81%
    21:00 +8°C° 0 mm 7 mps 765 mmHg 80%
    22:00 +8°C° 0 mm 7 mps 765 mmHg 81%
    23:00 +8°C° 0 mm 6 mps 766 mmHg 81%

    23 February, Sunday

    Time Temperature Precipitation Wind Pressure Humidity
    00:00 +7°C° 0 mm 6 mps 766 mmHg 82%
    01:00 +7°C° 0 mm 6 mps 766 mmHg 83%
    02:00 +7°C° 0 mm 5 mps 766 mmHg 84%
    03:00 +7°C° 0 mm 5 mps 766 mmHg 85%
    04:00 +7°C° 0.4 mm 5 mps 766 mmHg 87%
    05:00 +7°C° 0.4 mm 5 mps 765 mmHg 89%
    06:00 +6°C° 0.4 mm 5 mps 765 mmHg 92%
    07:00 +7°C° 0.8 mm 6 mps 764 mmHg 91%
    08:00 +6°C° 0.8 mm 7 mps 764 mmHg 90%
    09:00 +7°C° 0.8 mm 8 mps 763 mmHg 89%
    10:00 +8°C° 0.6 mm 9 mps 762 mmHg 89%
    11:00 +9°C° 0.6 mm 10 mps 762 mmHg 89%
    12:00 +11°C° 0.6 mm 11 mps 761 mmHg 88%
    13:00 +11°C° 0.2 mm 11 mps 761 mmHg 87%
    14:00 +11°C° 0.2 mm 11 mps 761 mmHg 86%
    15:00 +12°C° 0.2 mm 10 mps 761 mmHg 85%
    16:00 +11°C° 0.2 mm 10 mps 761 mmHg 86%
    17:00 +11°C° 0.2 mm 9 mps 762 mmHg 87%
    18:00 +11°C° 0.2 mm 9 mps 762 mmHg 88%
    19:00 +11°C° 0.2 mm 8 mps 762 mmHg 88%
    20:00 +11°C° 0.2 mm 8 mps 762 mmHg 89%
    21:00 +11°C° 0.2 mm 8 mps 763 mmHg 90%
    22:00 +11°C° 0.3 mm 7 mps 763 mmHg 91%
    23:00 +11°C° 0.3 mm 7 mps 763 mmHg 91%

    24 February, Monday

    Time Temperature Precipitation Wind Pressure Humidity
    00:00 +11°C° 0.3 mm 7 mps 763 mmHg 91%
    01:00 +11°C° 0 mm 7 mps 763 mmHg 91%
    02:00 +11°C° 0 mm 6 mps 763 mmHg 91%
    03:00 +11°C° 0 mm 6 mps 762 mmHg 90%
    04:00 +10°C° 0 mm 6 mps 762 mmHg 91%
    05:00 +10°C° 0 mm 6 mps 762 mmHg 91%
    06:00 +10°C° 0 mm 6 mps 762 mmHg 91%
    07:00 +10°C° 0 mm 7 mps 761 mmHg 89%
    08:00 +11°C° 0 mm 8 mps 761 mmHg 87%
    09:00 +11°C° 0 mm 8 mps 761 mmHg 85%
    10:00 +11°C° 0 mm 9 mps 761 mmHg 82%
    11:00 +12°C° 0 mm 9 mps 760 mmHg 78%
    12:00 +12°C° 0 mm 9 mps 760 mmHg 75%
    13:00 +13°C° 0 mm 9 mps 759 mmHg 71%
    14:00 +13°C° 0 mm 8 mps 758 mmHg 67%
    15:00 +15°C° 0 mm 8 mps 757 mmHg 64%
    16:00 +13°C° 0 mm 8 mps 757 mmHg 67%
    17:00 +11°C° 0 mm 7 mps 757 mmHg 70%
    18:00 +10°C° 0 mm 6 mps 757 mmHg 74%
    19:00 +10°C° 0 mm 7 mps 757 mmHg 76%
    20:00 +10°C° 0 mm 7 mps 757 mmHg 78%
    21:00 +10°C° 0 mm 7 mps 757 mmHg 80%
    22:00 +10°C° 0.1 mm 7 mps 757 mmHg 82%
    23:00 +10°C° 0.1 mm 6 mps 757 mmHg 84%

    25 February, Tuesday

    Time Temperature Precipitation Wind Pressure Humidity
    00:00 +9°C° 0.1 mm 6 mps 757 mmHg 85%
    01:00 +9°C° 0.1 mm 6 mps 757 mmHg 84%
    02:00 +8°C° 0.1 mm 5 mps 756 mmHg 82%
    03:00 +7°C° 0.1 mm 5 mps 756 mmHg 81%
    04:00 +7°C° 0 mm 5 mps 756 mmHg 78%
    05:00 +6°C° 0 mm 5 mps 756 mmHg 76%
    06:00 +6°C° 0 mm 5 mps 756 mmHg 74%
    07:00 +6°C° 0 mm 5 mps 756 mmHg 72%
    08:00 +6°C° 0 mm 5 mps 756 mmHg 70%
    09:00 +6°C° 0 mm 5 mps 756 mmHg 69%
    10:00 +6°C° 0 mm 5 mps 756 mmHg 67%
    11:00 +6°C° 0 mm 5 mps 756 mmHg 65%
    12:00 +7°C° 0 mm 5 mps 755 mmHg 63%
    13:00 +7°C° 0 mm 5 mps 755 mmHg 62%
    14:00 +7°C° 0 mm 5 mps 754 mmHg 60%
    15:00 +7°C° 0 mm 6 mps 753 mmHg 59%
    16:00 +6°C° 0 mm 5 mps 753 mmHg 65%
    17:00 +5°C° 0 mm 5 mps 753 mmHg 71%
    18:00 +5°C° 0 mm 5 mps 752 mmHg 77%
    19:00 +3°C° 0.4 mm 6 mps 752 mmHg 81%
    20:00 +3°C° 0.4 mm 7 mps 752 mmHg 85%
    21:00 +3°C° 0.4 mm 7 mps 751 mmHg 90%
    22:00 +2°C° 0.7 mm 8 mps 751 mmHg 86%
    23:00 +4°C° 0.7 mm 8 mps 750 mmHg 83%
    Show more